Regional Weather Roundup
Issued by NWS

Home | Current Version | Previous Version | Text Only | Print | Product List | Glossary Off
Versions: 1 2 3 4 5 6 7 8 9 10 11 12 13 14 15 16 17 18 19 20 21 22 23 24 25 26 27 28 29 30 31 32 33 34 35 36 37 38 39 40 41 42 43 44 45 46 47 48 49 50

000
ASUS43 KMPX 191710
RWRMN
WEATHER ROUNDUP FOR MINNESOTA
NATIONAL WEATHER SERVICE TWIN CITIES/CHANHASSEN MN
1200 PM CDT THU OCT 19 2017


NOTE: "FAIR" INDICATES FEW OR NO CLOUDS BELOW 12,000 FEET WITH NO
SIGNIFICANT WEATHER AND/OR OBSTRUCTIONS TO VISIBILITY. N/A MEANS
CURRENT SKY AND/OR WEATHER CONDITIONS ARE NOT AVAILABLE.

MNZ060>063-068>070-191800-
   Twin Cities Metro

CITY           SKY/WX    TMP DP  RH WIND       PRES   REMARKS
TWIN CITIES    MOSUNNY   63  35  35 S8        30.06F
ST PAUL        SUNNY     60  40  47 SE10      30.07F
CRYSTAL        SUNNY     61  33  35 VRB7      30.04F
BLAINE         PTSUNNY   64  34  32 S9        30.05F
LAKEVILLE      CLOUDY    63  36  36 S7        30.07F
EDEN PRAIRIE   SUNNY     63  36  36 SE7       30.05F
SOUTH ST PAUL  CLOUDY    61  34  36 SE7       30.06F
LAKE ELMO      FAIR      63  36  36 S7        30.08S
$$
MNZ001>005-007-008-013>017-022>024-027-028-191800-
   Northwest Minnesota

CITY           SKY/WX    TMP DP  RH WIND       PRES   REMARKS
BEMIDJI        SUNNY     61  32  33 S10G16    29.91F
HALLOCK        MOSUNNY   57  27  30 S21       29.80F
ROSEAU         CLOUDY    59  28  31 S10       29.85F
WARROAD        MOSUNNY   55  28  35 S7        29.87F
THIEF RVR FALL SUNNY     62  31  31 S20G25    29.85F
CROOKSTON      MOSUNNY   61  32  33 S18G25    29.83F
FOSSTON        SUNNY     63  30  29 S24       29.86F
DETROIT LAKES  SUNNY     64  34  32 S18G26    29.90F
MOORHEAD       SUNNY     61  34  36 S14       29.87F
PARK RAPIDS    LGT RAIN  64  34  32 S18G31    29.93F
MAHNOMEN       FAIR      64  34  32 S22G28    29.87F
$$
MNZ006-009>011-018-025>026-191800-
   North Central Minnesota

CITY           SKY/WX    TMP DP  RH WIND       PRES   REMARKS
BAUDETTE       SUNNY     57  24  28 S10       29.90F
FLAG ISLAND      N/A     48  36  61 S13       29.87S
INTL FALLS     SUNNY     56  23  27 S5        29.93S
WASKISH        MOSUNNY   61  30  31 S6        29.91F
BIG FORK       SUNNY     61  30  31 S5        29.95F
LONGVILLE      SUNNY     63  30  29 S9        29.95F
GRAND RAPIDS   SUNNY     61  29  29 SW8       29.99F
CRANE LAKE     CLOUDY    54  18  24 SW6       29.97
ORR            SUNNY     57  18  21 S5        29.94S
COOK           SUNNY     57  25  28 SW9       29.97S
WALKER         FAIR      61  31  33 S12       29.93F
$$
MNZ012-019>021-037-191800-
   Northeast Minnesota

CITY           SKY/WX    TMP DP  RH WIND       PRES   REMARKS
DULUTH         SUNNY     60  30  32 SW8       30.01R
ELY            CLOUDY    55  18  22 W9        29.97S
HIBBING        SUNNY     58  28  32 VRB7      29.98F
EVELETH        SUNNY     58  12  16 SW6       30.00S
DULUTH HARBOR  SUNNY     61  34  36 SW6       30.02S
TWO HARBORS    SUNNY     64  36  34 W12       29.98F
SILVER BAY     CLOUDY    61  23  23 W7        29.97S
GRAND MARAIS     N/A     50  37  61 W12       29.96R
G MARAIS ARPRT CLOUDY    55  16  21 W10G18    29.95R
$$
MNZ029>031-032-039>041-046>048-054>057-064-191800-
   West Central Minnesota

CITY           SKY/WX    TMP DP  RH WIND       PRES   REMARKS
FERGUS FALLS   SUNNY     63  37  39 S15G21    29.93S
WHEATON        SUNNY     68  36  30 S17G28    29.91F
MORRIS         SUNNY     64  37  36 S20       29.93S
ALEXANDRIA     SUNNY     63  34  33 S22G29    29.97F
ELBOW LAKE     FAIR      62  37  39 S16G23    29.95R
WADENA         SUNNY     63  36  36 S14G21    29.94F
GLENWOOD       SUNNY     64  36  34 S15       29.98F
APPLETON       SUNNY     68  34  28 S12G22    29.94F
BENSON         SUNNY     66  34  30 SW20      29.97F
ORTONVILLE     SUNNY     70  37  30 N16       29.93S
MADISON        SUNNY     72  36  26 S16G24    29.94F
WILLMAR        FAIR      66  36  32 S8G21     30.01S
$$
MNZ033>034-036-042>043-049>051-058-059-191800-
   Central Minnesota

CITY           SKY/WX    TMP DP  RH WIND       PRES   REMARKS
ST CLOUD       CLOUDY    62  32  32 S12       30.02F
SAUK CENTRE    FAIR      64  34  32 S15       29.99S
PAYNESVILLE    SUNNY     64  32  30 S15G21    30.01F
AITKIN         MOSUNNY   61  28  29 S9        29.98F
PINE RIVER     SUNNY     59  34  38 S10       30.00F
BRAINERD       SUNNY     62  30  29 S13       29.99F
STAPLES        SUNNY     63  28  27 S10       29.97S
LONG PRAIRIE   FAIR      61  34  36 SE14G21   29.98F
LITTLE FALLS   SUNNY     63  19  19 S12       30.00F
LITCHFIELD     SUNNY     66  34  30 S6        30.02S
BUFFALO        SUNNY     62  31  31 SE6       30.04F
MAPLE LAKE     SUNNY     64  35  32 S9G16     30.03F
HUTCHINSON     MOSUNNY   64  35  33 S10G17    30.04S
$$
MNZ037-044-045-052-053-191800-
   East Central Minnesota

CITY           SKY/WX    TMP DP  RH WIND       PRES   REMARKS
PRINCETON      CLOUDY    63  36  36 SE6       30.03F
MORA           SUNNY     59  32  36 S8        30.05F
CAMBRIDGE      SUNNY     64  41  42 S7        30.04F
RUSH CITY      SUNNY     62  33  34 S6        30.05F
MOOSE LAKE     SUNNY     61  34  36 SW7       30.01S
HINCKLEY       FAIR      61  34  36 S7        30.05S
CLOQUET        SUNNY     59  28  31 S8        30.01F
MCGREGOR       SUNNY     63  32  31 S12       30.01F
$$
MNZ071>073-080-081-089-090-097-098-191800-
   Southwest Minnesota

CITY           SKY/WX    TMP DP  RH WIND       PRES   REMARKS
MONTEVIDEO     SUNNY     68  37  32 SW14G22   29.97F
GRANITE FALLS  SUNNY     69  37  31 S20G26    30.01S
CANBY          SUNNY     69  35  28 SW18G29   29.96F
MARSHALL       SUNNY     68  37  32 S20G26    29.99F
REDWOOD FALLS  SUNNY     68  31  25 S23       30.01F
OLIVIA         SUNNY     66  36  32 S16G24    30.00F
PIPESTONE      SUNNY     64  36  34 S16G22    30.02F
WORTHINGTON    SUNNY     65  35  33 S17G23    30.05F
JACKSON        SUNNY     63  30  29 S15G21    30.08F
TRACY          SUNNY     66  37  33 S18G24    30.01F
SLAYTON        SUNNY     65  13  13 S15G21    30.04F
$$
MNZ065>067-074>077-082>085-091>093-191800-
   South Central Minnesota

CITY           SKY/WX    TMP DP  RH WIND       PRES   REMARKS
MANKATO        SUNNY     64  33  31 S10       30.08F
NEW ULM        SUNNY     63  30  29 S18       30.05F
ST JAMES       SUNNY     64  30  27 SE14G21   30.07F
FAIRMONT       SUNNY     62  32  32 S18       30.09S
GLENCOE        SUNNY     65  31  28 S14G21    30.04S
FARIBAULT      CLOUDY    64  34  32 S9        30.08F
OWATONNA       CLOUDY    64  36  34 S10       30.09S
WASECA         CLOUDY    64  32  29 S10       30.11S
$$
MNZ078>079-086>088-094>096-191800-
   Southeast Minnesota

CITY           SKY/WX    TMP DP  RH WIND       PRES   REMARKS
ROCHESTER      CLOUDY    67  33  28 S10       30.13S
RED WING       CLOUDY    61  34  36 SE6       30.08F
STANTON        CLOUDY    65  31  28 S12       30.07F
DODGE CENTER   MOSUNNY   66  27  22 S10       30.10F
WINONA         MOSUNNY   59  41  51 E3        30.12F
AUSTIN         MOSUNNY   61  34  36 S9        30.12S
PRESTON        MOSUNNY   64  33  31 S8        30.14S
$$
ABBREVIATIONS USED IN REMARKS
   TC - TEMPERATURES IN CELSIUS
  WCI - WIND CHILL INDEX
   HX - HEAT INDEX
  VSB - VISIBILITY
$$




USA.gov is the U.S. government's official web portal to all federal, state and local government web resources and services.